Location: Unspecified
(0.0000°N, 0.0000°E)
Time: 14:17:33
(UTC+00:00)

STARLINK-32041 - Visible Passes

Search period start: 19 September 2024 00:00
Search period end: 29 September 2024 00:00
Orbit: 446 x 448 km, 53.2° (Epoch: 19 September)

Date Brightness Start Highest point End Pass type
(mag) Time Alt. Az. Time Alt. Az. Time Alt. Az.
19 Sep 5.7 19:25:38 10° SSW 19:26:10 13° S 19:26:10 13° S visible
20 Sep 4.5 18:47:37 10° S 18:50:28 23° SE 18:50:32 23° ESE visible
21 Sep 5.8 19:46:28 10° WSW 19:48:42 19° WNW 19:48:42 19° WNW visible
22 Sep 4.9 19:07:28 10° WSW 19:10:41 33° NW 19:13:19 13° N visible
23 Sep 3.8 18:28:49 10° SW 18:32:18 59° NW 18:35:45 10° NNE visible
26 Sep 5.1 04:53:12 10° N 04:56:21 31° NE 04:59:31 10° ESE visible
27 Sep 5.8 04:15:48 11° NNE 04:18:02 19° NE 04:20:34 10° ESE visible
28 Sep 6.6 03:40:29 11° ENE 03:40:29 11° ENE 03:40:54 10° ENE visible
28 Sep 4.4 05:14:07 11° WNW 05:16:48 24° SW 05:19:43 10° S visible
